Location: Azul
(36.7830°S, 59.8500°W)
Time: 01:41:13
(UTC-03:00)

UWE-3 - Pass Details

Date: 29 October 2021
Orbit: 584 x 681 km, 97.7° (Epoch: 04 December)

Event Time Altitude Azimuth Distance (km) Brightness Sun altitude
Exits shadow 04:09:56 18° 13° (NNE) 1,567 ? -20.0°
Maximum altitude 04:13:14 89° 293° (WNW) 649 ? -19.5°
Drops below altitude 10° 04:17:48 10° 192° (SSW) 2,084 ? -18.7°
Sets 04:20:04 0° 192° (SSW) 3,018 ? -18.3°
